Home   Weather   Campinas   Past weeks

Flag for Brazil Past Weather in Campinas, São Paulo, Brazil — Yesterday and Last 2 Weeks

Now
72 °F

Scattered showers. Mostly cloudy.


Feels Like: 74 °F
Forecast: 66 / 76 °F
Wind: 5 mph from Southwest

Location: Campinas Aeroporto

Current Time: Jan 22, 2017 at 12:38:24 pm

Latest Report: Jan 22, 2017 at 12:00 pm


Visibility: N/A

Pressure: 30.07 "Hg (27.77 "Hg at 686m altitude)

Humidity: 73%

Dew Point: 63 °F

Location of CampinasLocation

Past Weather in Campinas — Graph

°F

Campinas Temperature Yesterday

Maximum temperature yesterday: 79 °F (at 2:00 pm)
Minimum temperature yesterday: 66 °F (at 9:00 pm)
Average temperature yesterday: 71 °F

High & Low Weather Summary for the Past Weeks

 TemperatureHumidityPressure
High91 °F (Jan 8, 4:00 pm)100% (Jan 9, 9:00 pm)30.15 "Hg (Jan 9, 9:00 pm)
Low34 °F (Jan 10, 12:00 am)16% (Jan 8, 4:00 pm)29.80 "Hg (Jan 14, 6:00 pm)
Average74 °F73%29.97 "Hg
* Reported Jan 7 11:00 am — Jan 22 11:00 am, Campinas, Weather by CustomWeather, © 2017

Note: Actual official high and low records may vary slightly from our data, if they occured in-between our weather recording intervals... More about our weather records

Advertising

Campinas Weather History for the Previous 24 Hours

Scroll right to see more
 ConditionsComfort  
Time TempWeatherWind HumidityBarometerVisibility
11:00 am
Sun, Jan 22
70 °FLight rain. More clouds than sun.3 mph83%30.09 "HgN/A
10:00 am68 °FSunny.2 mph83%30.07 "Hg10 mi
9:00 am66 °FSunny.6 mph94%30.07 "Hg10 mi
8:00 am64 °FSunny.6 mph94%30.04 "Hg10 mi
7:00 am64 °FLight rain. Clear.6 mph94%30.01 "HgN/A
6:00 am64 °FLight rain. Clear.6 mph94%30.01 "HgN/A
5:00 am64 °FLight rain. Clear.3 mph94%30.01 "HgN/A
4:00 am64 °FLight rain. Clear.6 mph94%30.01 "HgN/A
3:00 am64 °FLight rain. Clear.2 mph100%30.01 "HgN/A
2:00 am64 °FLight rain. Clear.5 mph100%30.04 "HgN/A
1:00 am64 °FLight rain. Clear.5 mph94%30.04 "HgN/A
12:00 am64 °FLight rain. Clear.8 mph94%30.07 "HgN/A
11:00 pm
Sat, Jan 21
66 °FLight rain. Passing clouds.12 mph94%30.07 "HgN/A
10:00 pm66 °FThunderstorms. Passing clouds.15 mph100%N/AN/A
9:30 pm66 °FThunderstorms. Passing clouds.8 mph100%N/AN/A
9:00 pm66 °FStrong thunderstorms. Fog.12 mph100%30.07 "Hg2 mi
8:00 pm68 °FStrong thunderstorms. Fog.8 mph94%30.07 "Hg1 mi
7:25 pm72 °FLight rain. Partly sunny.7 mph88%30.04 "Hg4 mi
7:00 pm72 °FPartly sunny.5 mph88%30.04 "HgN/A
6:00 pm70 °FLight rain. Scattered clouds.9 mph88%30.04 "Hg4 mi
5:00 pm75 °FScattered clouds.9 mph61%30.04 "HgN/A
4:00 pm79 °FScattered clouds.7 mph48%30.04 "HgN/A
3:00 pm79 °FScattered showers. Scattered clouds.6 mph51%30.07 "HgN/A
2:00 pm79 °FScattered showers. Broken clouds.7 mph51%30.09 "HgN/A
1:00 pm77 °FLight rain. Broken clouds.6 mph57%30.12 "HgN/A
12:00 pm75 °FPartly sunny.8 mph69%30.12 "HgN/A
Weather by CustomWeather, © 2017

See weather overviewHow to use our weather pages